This demonstration page uses our WeatherBlox Daily Observations layout. Learn more.

40.92945, -100.16068

Hourly Observations for June 11, 2015

Temp ( °F °C ) Dew Point ( °F °C ) Humidity (%) Winds ( mph kmh ) Pressure ( in mb ) Visibility ( mi km ) Precip ( " mm )
12:15 am 00:15 Cloudy 66 18.7 64 17.7 94 94 ESE 8 13 29.65 1004 10 16.0934 N/A
12:35 am 00:35 Mostly Cloudy with Light Rain 65 18.6 64 17.6 94 94 SE 14 22 29.62 1003 10 16.0934 N/A
12:55 am 00:55 Cloudy 66 18.7 64 17.8 95 95 ESE 10 17 29.62 1003 7 11.26538 0.02 0.508
1:15 am 01:15 Cloudy with Thunderstorms 66 18.8 64 18 95 95 ESE 15 24 29.62 1003 10 16.0934 N/A
1:35 am 01:35 Cloudy with Light Rain 65 18.5 64 17.8 96 96 ESE 14 22 29.62 1003 7 11.26538 0.03 0.762
1:55 am 01:55 Cloudy 65 18.5 64 17.8 96 96 ESE 12 19 29.62 1003 10 16.0934 0.03 0.762
2:15 am 02:15 Cloudy 65 18.6 64 18 96 96 E 12 19 29.62 1003 7 11.26538 N/A
2:35 am 02:35 Cloudy 65 18.6 64 18 96 96 E 10 17 29.62 1003 7 11.26538 N/A
2:55 am 02:55 Cloudy with Mist and Fog 66 18.7 65 18.1 96 96 ESE 5 7 29.65 1004 5 8.0467 N/A
3:15 am 03:15 Cloudy 66 18.8 65 18.2 96 96 ESE 8 13 29.65 1004 5 8.0467 0.01 0.254
3:35 am 03:35 Cloudy with Light Thunderstorms 66 18.7 65 18.1 96 96 ENE 7 11 29.62 1003 7 11.26538 0.09 2.286
3:55 am 03:55 Cloudy with Thunderstorms 66 18.7 65 18.1 96 96 NE 7 11 29.62 1003 5 8.0467 0.09 2.286
4:15 am 04:15 Cloudy with Mist and Fog 66 18.8 65 18.2 96 96 ENE 5 7 29.62 1003 5 8.0467 N/A
4:35 am 04:35 Cloudy with Mist and Fog 66 18.8 65 18.2 96 96 NE 5 7 29.62 1003 5 8.0467 N/A
4:55 am 04:55 Cloudy 66 19 65 18.5 97 97 NNE 5 7 29.62 1003 N/A N/A
5:15 am 05:15 Cloudy with Mist and Fog 66 19 65 18.5 97 97 NNE 6 9 29.62 1003 5 8.0467 N/A
5:35 am 05:35 Cloudy 66 19.1 65 18.5 96 96 ENE 3 6 29.62 1003 7 11.26538 N/A
5:55 am 05:55 Cloudy 67 19.2 65 18.6 96 96 ENE 3 6 29.62 1003 7 11.26538 N/A
6:15 am 06:15 Cloudy with Mist and Fog 67 19.5 66 18.8 96 96 ENE 6 9 29.62 1003 5 8.0467 N/A
6:35 am 06:35 Cloudy with Mist and Fog 67 19.5 66 18.8 96 96 NNE 3 6 29.62 1003 4 6.43736 N/A
6:55 am 06:55 Cloudy with Mist and Fog 67 19.5 66 19 97 97 N 7 11 29.62 1003 5 8.0467 0 0
7:15 am 07:15 Cloudy with Mist and Fog 67 19.5 66 18.8 96 96 N 7 11 29.62 1003 4 6.43736 N/A
7:35 am 07:35 Cloudy with Mist and Fog 67 19.3 66 18.7 96 96 N 7 11 29.62 1003 1.75 2.816345 N/A
7:55 am 07:55 Cloudy with Mist and Fog 67 19.2 65 18.6 96 96 N 8 13 29.62 1003 1.5 2.41401 N/A
8:15 am 08:15 Cloudy with Mist and Fog 67 19.3 66 18.7 96 96 N 9 15 29.62 1003 1.75 2.816345 N/A
8:35 am 08:35 Cloudy with Mist and Fog 67 19.6 66 19 96 96 N 9 15 29.65 1004 4 6.43736 N/A
8:55 am 08:55 Cloudy with Mist and Fog 68 19.8 67 19.2 96 96 N 9 15 29.65 1004 5 8.0467 N/A
9:15 am 09:15 Cloudy 68 20.1 67 19.5 96 96 N 9 15 29.65 1004 7 11.26538 N/A
9:35 am 09:35 Cloudy 68 20 67 19.3 96 96 N 10 17 29.68 1005 10 16.0934 N/A
9:55 am 09:55 Cloudy 68 20.1 67 19.3 95 95 N 12 19 29.65 1004 10 16.0934 N/A
10:15 am 10:15 Cloudy 68 20.2 66 19.1 93 93 N 9 15 29.65 1004 10 16.0934 N/A
10:35 am 10:35 Cloudy 68 20.2 66 18.8 92 92 N 13 20 29.68 1005 10 16.0934 N/A
10:55 am 10:55 Cloudy 68 20 65 18.6 92 92 N 14 22 29.68 1005 10 16.0934 N/A
11:15 am 11:15 Cloudy 68 20.1 66 18.7 92 92 N 13 20 29.68 1005 10 16.0934 N/A
11:35 am 11:35 Cloudy 69 20.5 65 18.6 89 89 N 13 20 29.65 1004 10 16.0934 N/A
11:55 am 11:55 Cloudy 69 20.6 65 18.4 87 87 N 13 20 29.65 1004 10 16.0934 N/A
12:15 pm 12:15 Cloudy 69 20.6 64 18 85 85 N 14 22 29.65 1004 10 16.0934 N/A
12:35 pm 12:35 Cloudy 70 21 64 18 83 83 N 14 22 29.65 1004 10 16.0934 N/A
12:55 pm 12:55 Cloudy 70 20.9 64 17.6 82 82 NNW 17 28 29.71 1006 10 16.0934 N/A
1:15 pm 13:15 Cloudy 69 20.3 63 17.4 84 84 N 18 30 29.71 1006 10 16.0934 N/A
1:35 pm 13:35 Cloudy 67 19.6 63 17.3 87 87 N 15 24 29.71 1006 10 16.0934 N/A
1:55 pm 13:55 Cloudy 67 19.6 63 17 85 85 N 14 22 29.71 1006 10 16.0934 N/A
2:15 pm 14:15 Cloudy 68 19.8 63 17.1 85 85 N 15 24 29.71 1006 10 16.0934 N/A
2:35 pm 14:35 Cloudy 69 20.4 63 17.3 82 82 N 13 20 29.71 1006 10 16.0934 N/A
2:55 pm 14:55 Mostly Cloudy 67 19.6 62 16.6 83 83 N 13 20 29.71 1006 10 16.0934 N/A
3:15 pm 15:15 Cloudy 67 19.5 62 16.5 83 83 N 12 19 29.74 1007 10 16.0934 N/A
3:35 pm 15:35 Cloudy 67 19.3 62 16.6 84 84 N 12 19 29.74 1007 10 16.0934 N/A
3:55 pm 15:55 Cloudy 66 18.7 61 16.1 85 85 NNE 12 19 29.74 1007 10 16.0934 N/A
4:15 pm 16:15 Cloudy 66 18.7 61 16.1 85 85 N 10 17 29.74 1007 10 16.0934 N/A
4:35 pm 16:35 Cloudy 66 18.7 61 16.1 85 85 NNE 12 19 29.74 1007 10 16.0934 N/A
4:55 pm 16:55 Cloudy 65 18.3 60 15.8 85 85 N 12 19 29.77 1008 10 16.0934 N/A
5:15 pm 17:15 Cloudy 64 18 61 16 88 88 NNE 12 19 29.8 1009 7 11.26538 N/A
5:35 pm 17:35 Cloudy 65 18.1 61 16.1 88 88 NNE 13 20 29.8 1009 10 16.0934 N/A
5:55 pm 17:55 Cloudy 64 18 61 16.1 89 89 NNE 13 20 29.8 1009 10 16.0934 N/A
6:15 pm 18:15 Cloudy 64 18 60 15.8 87 87 NNE 13 20 29.8 1009 10 16.0934 N/A
6:35 pm 18:35 Cloudy 65 18.4 60 15.7 84 84 NNE 10 17 29.8 1009 10 16.0934 N/A
6:55 pm 18:55 Cloudy 65 18.5 60 15.5 83 83 N 15 24 29.77 1008 10 16.0934 N/A
7:15 pm 19:15 Cloudy 65 18.2 59 15.2 83 83 NNE 13 20 29.83 1010 10 16.0934 N/A
7:35 pm 19:35 Cloudy 64 18 60 15.3 84 84 NNE 12 19 29.83 1010 10 16.0934 N/A
7:55 pm 19:55 Cloudy 64 17.7 59 15.2 85 85 NNE 14 22 29.83 1010 10 16.0934 N/A
8:15 pm 20:15 Cloudy 64 17.6 59 15.1 85 85 NNE 12 19 29.83 1010 10 16.0934 N/A
8:35 pm 20:35 Cloudy 64 17.5 59 15 85 85 NNE 10 17 29.85 1011 10 16.0934 N/A
8:55 pm 20:55 Cloudy 63 17.3 58 14.7 85 85 N 10 17 29.85 1011 10 16.0934 N/A
9:15 pm 21:15 Cloudy 63 17.2 58 14.7 85 85 NNE 12 19 29.85 1011 10 16.0934 N/A
9:35 pm 21:35 Cloudy 63 17 58 14.5 85 85 NNE 7 11 29.85 1011 10 16.0934 N/A
9:55 pm 21:55 Cloudy 63 17 58 14.6 86 86 NNE 12 19 29.85 1011 10 16.0934 N/A
10:15 pm 22:15 Cloudy 62 16.8 58 14.2 85 85 N 13 20 29.88 1012 10 16.0934 N/A
10:35 pm 22:35 Cloudy 62 16.7 57 14 84 84 NNE 10 17 29.85 1011 10 16.0934 N/A
10:55 pm 22:55 Cloudy 62 16.6 58 14.2 86 86 NNE 10 17 29.85 1011 10 16.0934 N/A
11:15 pm 23:15 Cloudy 62 16.6 58 14.3 86 86 NE 5 7 29.88 1012 10 16.0934 N/A
11:35 pm 23:35 Cloudy 62 16.5 58 14.5 88 88 NE 7 11 29.88 1012 10 16.0934 N/A
11:55 pm 23:55 Cloudy 62 16.5 57 14 85 85 NE 12 19 29.88 1012 10 16.0934 N/A

Powered by AerisWeather